Hourly Weather Roundup
Issued by NWS Central Illinois

Home | Current Version | Previous Version | Text Only | Print | Product List | Glossary On
Versions: 1 2 3 4 5 6 7 8 9 10 11 12 13 14 15 16 17 18 19 20 21 22 23 24 25 26 27 28 29 30 31 32 33 34 35 36 37 38 39 40 41 42 43 44 45 46 47 48 49 50
000
NZUS43 KILX 121510
HWRILX

AREA WEATHER ROUNDUP
NATIONAL WEATHER SERVICE, LINCOLN IL
900 AM CST FRI FEB 12 2016


CITY           SKY/WX    TMP DP  RH WIND       PRES   REMARKS
BLOOMINGTON    CLOUDY    23  19  85 W12       30.20R WCI  12
CHAMPAIGN      CLOUDY    23  19  85 W12       30.19F WCI  12
DANVILLE       CLOUDY    22  18  85 W10       30.15F WCI  11
DECATUR        CLOUDY    23  18  81 W7        30.21F WCI  15
EFFINGHAM      CLOUDY    25  22  88 W3        30.24F
FLORA          CLOUDY    26  22  85 CALM      30.26R
GALESBURG      CLOUDY    22  20  90 NW13      30.24R WCI  10
JACKSONVILLE   CLOUDY    26  21  84 W13       30.27R WCI  14
LACON          MIX PCPN  22  17  78 W9        30.21S WCI  12
LAWRENCEVILLE  CLOUDY    24  19  81 NW3       30.24S
LITCHFIELD     CLOUDY    24  20  83 W7        30.25R WCI  16
$$


CITY           SKY/WX    TMP DP  RH WIND       PRES   REMARKS
LINCOLN        CLOUDY    24  20  86 W8        30.23S WCI  15
MACOMB         CLOUDY    23  20  89 NW12      30.28R WCI  12
MATTOON        CLOUDY    22  17  81 NW10      30.20S WCI  11
MT CARMEL AP   CLOUDY    25  19  80 CALM      30.24S
OLNEY-NOBLE AP CLOUDY    25  21  86 W5        30.26R WCI  19
PARIS          CLOUDY    23  18  81 W7        30.21F WCI  14
PEORIA         CLOUDY    23  17  78 NW10      30.24R WCI  12
PONTIAC        MIX PCPN  24  19  82 W14       30.20R WCI  11
RANTOUL        CLOUDY    25  20  83 W10       30.18F WCI  15
ROBINSON       CLOUDY    24  19  81 W6        30.24S WCI  17
SPRINGFIELD    CLOUDY    24  19  81 W9        30.25S WCI  14
TAYLORVILLE    CLOUDY    23  21  93 W7        30.24S WCI  15
$$

...REGIONAL REPORTS...


CITY           SKY/WX    TMP DP  RH WIND       PRES   REMARKS
CHICAGO O`HARE FLURRIES  19  10  68 W15G25    30.14R WCI   5
KANKAKEE       CLOUDY    23  16  74 W8G18     30.18S WCI  14
MOLINE         LGT SNOW  21  14  74 NW22G32   30.25R WCI   5
MOUNT STERLING CLOUDY    21  18  89 W9        30.27R WCI  11
MOUNT VERNON   CLOUDY    25  19  80 CALM      30.25S
PITTSFIELD     CLOUDY    24  20  84 W8        30.28R WCI  15
QUINCY         CLOUDY    22  18  85 W12       30.28R WCI  10
ROCKFORD       FLURRIES  18   9  68 NW14      30.20R WCI   4
$$


CITY           SKY/WX    TMP DP  RH WIND       PRES   REMARKS
BURLINGTON     CLOUDY    22  18  85 NW15G22   30.27R WCI   9
CEDAR RAPIDS   CLOUDY    17  12  80 NW21G26   30.28R WCI   0
DES MOINES     MOSUNNY   20  12  71 NW12      30.37R WCI   8
KIRKSVILLE     CLOUDY    24  18  77 N14G21    30.30R WCI  12
OTTUMWA        CLOUDY    20  15  81 NW20G29   30.33R WCI   4
ST LOUIS       CLOUDY    28  22  78 W6        30.28R WCI  22
$$


CITY           SKY/WX    TMP DP  RH WIND       PRES   REMARKS
TERRE HAUTE    CLOUDY    23  15  71 W8        30.21S WCI  14
EVANSVILLE     CLOUDY    27  21  78 NW5       30.25R WCI  22
INDIANAPOLIS   CLOUDY    24  11  57 W12       30.16F WCI  13
LAFAYETTE      CLOUDY    22  15  75 W12       30.18S WCI  10
MADISON        FLURRIES  14   5  67 NW12G18   30.16S WCI   0
MILWAUKEE      PTSUNNY   17   4  56 NW21      30.13S WCI   0
$$





USA.gov is the U.S. government's official web portal to all federal, state and local government web resources and services.